Regional Weather Roundup
Issued by NWS

Home | Current Version | Previous Version | Text Only | Print | Product List | Glossary On
Versions: 1 2 3 4 5 6 7 8 9 10 11 12 13 14 15 16 17 18 19 20 21 22 23 24 25 26 27 28 29 30 31 32 33 34 35 36 37 38 39 40 41 42 43 44 45 46 47 48 49 50
000
ASUS45 KPSR 011100
RWRAZ

ARIZONA HOURLY REGIONAL WEATHER ROUNDUP
NATIONAL WEATHER SERVICE PHOENIX AZ
400 AM MST SAT AUG 01 2015

NOTE: FAIR INDICATES FEW OR NO CLOUDS BELOW 12,000 FEET WITH NO
SIGNIFICANT WEATHER AND/OR OBSTRUCTIONS TO VISIBILITY.

AZZ001>003-036-011200-
NORTHWEST ARIZONA

CITY           SKY/WX    TMP DP  RH WIND       PRES   REMARKS
KINGMAN        CLOUDY    80  53  39 SE13      30.06S
$$

AZZ004>008-015-016-018-011200-
NORTH CENTRAL ARIZONA

CITY           SKY/WX    TMP DP  RH WIND       PRES   REMARKS
GRAND CANYON   CLOUDY    61  54  77 CALM      30.31F
WILLIAMS       CLOUDY    63  52  67 SE8       30.38S
PRESCOTT       CLOUDY    69  60  73 S5        30.21R
FLAGSTAFF      NOT AVBL
PAYSON         CLOUDY    66  61  82 CALM      30.22S
PAGE           PTCLDY    79  51  37 S3        30.12S
$$

AZZ009>014-017-011200-
NORTHEAST ARIZONA

CITY           SKY/WX    TMP DP  RH WIND       PRES   REMARKS
WINSLOW        NOT AVBL
SAINT JOHNS    MOCLDY    64  59  83 S6        30.25F
SHOW LOW       MOCLDY    59  52  77 S7        30.31F
$$

AZZ023-011200-
GREATER PHOENIX AREA

CITY           SKY/WX    TMP DP  RH WIND       PRES   REMARKS
PHOENIX        CLOUDY    82  70  66 NW3       29.89F
LUKE AFB       CLOUDY    79  73  83 N3        29.90F
DEER VALLEY    CLOUDY    82  64  54 N7        29.92F
SCOTTSDALE     MOCLDY    83  65  54 N6        29.93F
$$

AZZ027-028-011200-
SOUTHWEST MARICOPA COUNTY AND PINAL COUNTY

CITY           SKY/WX    TMP DP  RH WIND       PRES   REMARKS
CASA GRANDE    MOCLDY    75  73  94 CALM      29.91F
GILA BEND      CLOUDY    81  68  64 E3        29.87S
$$

AZZ503-504-507>509-011200-
SOUTHEAST ARIZONA

CITY           SKY/WX    TMP DP  RH WIND       PRES   REMARKS
TUCSON         CLEAR     76  65  68 SE12      30.00F
DAVIS-MONTHAN  PTCLDY    75  63  66 SE12      29.99S
NOGALES        CLEAR     64  60  87 NE5       30.09F
SIERRA VISTA   CLEAR     66  60  81 S7        30.16S
SAFFORD        CLOUDY    73  66  78 N5        30.04S
$$

AZZ020-021-025-026-031-011200-
SOUTHWEST ARIZONA

CITY           SKY/WX    TMP DP  RH WIND       PRES   REMARKS
YUMA           NOT AVBL
$$

CAZ031-033-041-043-047-048-061-011200-
SOUTHERN CALIFORNIA

CITY           SKY/WX    TMP DP  RH WIND       PRES   REMARKS
DOWNTOWN L.A.  CLOUDY    68  64  87 CALM      29.96S
L.A. AIRPORT   CLOUDY    67  65  93 W6        29.97S FOG
SAN DIEGO      CLOUDY    70  63  78 W5        29.97F
BURBANK        CLOUDY    68  64  87 SE6       29.96F
ONTARIO        PTCLDY    69  64  84 SW5       29.97F
RIVERSIDE      PTCLDY    70  64  81 W5        29.97S
PALM SPRINGS   PTCLDY    83  62  49 CALM      29.84F
EL CENTRO NAS  CLEAR     82  51  34 E3        29.81S
IMPERIAL       CLEAR     83  50  31 CALM      29.79S
BLYTHE         PTCLDY    87  64  46 CALM      29.85R
$$

NVZ020-UTZ003-011200-
SOUTHERN NEVADA-UTAH

CITY           SKY/WX    TMP DP  RH WIND       PRES   REMARKS
LAS VEGAS      NOT AVBL
SALT LAKE CITY PTCLDY    66  35  31 SE10      30.10R
$$

NMZ009-TXZ055-011200-
NEW MEXICO-WEST TEXAS

CITY           SKY/WX    TMP DP  RH WIND       PRES   REMARKS
ALBUQUERQUE    CLOUDY    68  58  70 CALM      30.29F
EL PASO        PTCLDY    78  55  44 N12       30.12S
$$


........................KEY........................
SKY/WX - SKY CONDITION/WEATHER
TMP    - TEMPERATURE IN FAHRENHEIT
DP     - DEW POINT IN FAHRENHEIT
RH     - RELATIVE HUMIDITY IN PERCENT
WIND   - DIRECTION AND SPEED IN MILES PER HOUR (MPH)
VRB    - VARIABLE WIND DIRECTION
PRES   - MEAN SEA LEVEL PRESSURE IN INCHES OF MERCURY
         F - FALLING PRESSURE   R - RISING PRESSURE
         S - STEADY PRESSURE
VSB    - VISIBILITY IN MILES
HX     - HEAT INDEX IN FAHRENHEIT
WCI    - WIND CHILL INDEX IN FAHRENHEIT
TC     - TEMPERATURE IN CELSIUS WHICH IS ALSO KNOWN AS
         TEMPERATURE IN CENTIGRADE
AFB    - AIR FORCE BASE
         LUKE AFB IS LUKE AIR FORCE BASE
         DAVIS-MONTHAN IS DAVIS-MONTHAN AIR FORCE BASE
NAS    - NAVAL AIR STATION
         EL CENTRO NAS IS EL CENTRO NAVAL AIR STATION
N/A    - NOT AVAILABLE



USA.gov is the U.S. government's official web portal to all federal, state and local government web resources and services.